{"data":{"norad_id":68656,"intl_designator":"2026-076A","name":"HULIANWANG DIGUI-164","alt_names":[],"object_type":"PAYLOAD","status":"ACTIVE","operator":null,"country":"PRC","launch_date":"2026-04-08","launch_site_code":"TAISC","launch_vehicle":null,"mission":null,"orbit_class":"UNKNOWN","rcs_meters":null,"size_class":null,"mass_kg":null,"dimensions":null,"purposes":[],"wikipedia_slug":null,"has_3d_model":false,"image_url":null,"decayed_at":null,"tle_current":{"epoch":"2026-09-20T03:59:46.650624Z","epoch_age_seconds":91974,"freshness":"FRESH","line1":"1 68656U 26076A   26263.16651216  .00000042  00000+0  62666-4 0  9994","line2":"2 68656  86.5029  11.8106 0001633 116.6851 243.4450 13.24407202 21944","mean_motion":13.24407202,"eccentricity":0.0001633,"inclination_deg":86.5029,"raan_deg":11.8106,"arg_perigee_deg":116.6851,"mean_anomaly_deg":243.445,"bstar":6.2666e-5,"rev_number":2194,"period_min":108.7278895664,"perigee_km":1166.70054051,"apogee_km":1169.1650869112,"semimajor_km":7546.0698137106,"source":"CELESTRAK","updated_at":"2026-09-20T09:00:24.373089Z"}}}